Location: Unspecified
(0.0000°N, 0.0000°E)
Time: 06:34:10
(UTC+00:00)

Vanguard 1 - Pass Details

Date: 26 November 2019
Orbit: 652 x 3832 km, 34.3° (Epoch: 10 December)

Event Time Altitude Azimuth Distance (km) Brightness Sun altitude
Rises 14:58:59 0° 333° (NNW) 3,086 12.6 38.7°
Reaches altitude 10° 15:02:17 10° 358° (N) 2,050 11.6 38.0°
Maximum altitude 15:04:57 15° 35° (NE) 1,716 11.1 37.4°
Drops below altitude 10° 15:07:42 10° 73° (ENE) 2,132 11.4 36.8°
Sets 15:11:14 0° 96° (E) 3,286 12.4 36.0°
